Home   Weather   Barysaw   Past weeks

Flag for Belarus Past Weather in Barysaw, Belarus — Yesterday and Last 2 Weeks

Now
21 °F

Passing clouds.


Feels Like: 21 °F
Forecast: 14 / 24 °F
Wind: 1 mph from Southwest

Location: Minsk

Current Time: Jan 18, 2017 at 9:06:49 am

Latest Report: Jan 18, 2017 at 8:30 am


Visibility: 4 mi

Pressure: 30.63 "Hg

Humidity: 100%

Dew Point: 21 °F

Location of BarysawLocation

Past Weather in Barysaw — Graph

°F

Barysaw Temperature Yesterday

Maximum temperature yesterday: 25 °F (at 12:00 am)
Minimum temperature yesterday: 18 °F (at 10:30 am)
Average temperature yesterday: 23 °F

High & Low Weather Summary for the Past Weeks

 TemperatureHumidityPressure
High32 °F (Jan 4, 12:00 pm)100% (Jan 4, 12:30 am)30.63 "Hg (Jan 4, 12:30 am)
Low-15 °F (Jan 7, 8:00 am)65% (Jan 8, 2:30 pm)29.06 "Hg (Jan 4, 1:30 pm)
Average16 °F90%29.91 "Hg
* Reported Jan 3 7:00 am — Jan 18 7:30 am, Barysaw, Weather by CustomWeather, © 2017

Note: Actual official high and low records may vary slightly from our data, if they occured in-between our weather recording intervals... More about our weather records

Advertising

Barysaw Weather History for the Previous 24 Hours

Scroll right to see more
 ConditionsComfort  
Time TempWeatherWind HumidityBarometerVisibility
7:30 am
Wed, Jan 18
21 °FPassing clouds.No wind93%30.63 "Hg5 mi
7:00 am21 °FPassing clouds.No wind100%30.63 "Hg4 mi
6:30 am21 °FPassing clouds.1 mph93%30.63 "Hg5 mi
6:00 am19 °FPartly cloudy.No wind100%30.63 "Hg4 mi
5:30 am21 °FPartly cloudy.1 mph93%30.63 "Hg5 mi
5:00 am21 °FPassing clouds.No wind100%30.63 "Hg5 mi
4:30 am21 °FPassing clouds.3 mph100%30.63 "Hg5 mi
4:00 am23 °FPassing clouds.3 mph93%30.63 "Hg6 mi
3:30 am23 °FPassing clouds.3 mph93%30.63 "Hg6 mi
3:00 am23 °FPassing clouds.3 mph93%30.63 "Hg6 mi
2:30 am23 °FPassing clouds.3 mph93%30.60 "Hg6 mi
2:00 am23 °FPassing clouds.3 mph93%30.60 "Hg6 mi
1:30 am21 °FPassing clouds.3 mph100%30.63 "Hg4 mi
1:00 am23 °FPassing clouds.1 mph93%30.63 "Hg4 mi
12:30 am23 °FPassing clouds.3 mph93%30.63 "Hg4 mi
12:00 am23 °FPassing clouds.3 mph93%30.60 "Hg4 mi
11:30 pm
Tue, Jan 17
21 °FPassing clouds.3 mph93%30.60 "Hg4 mi
11:10 pm21 °FIce fog.No wind100%30.60 "Hg3 mi
11:00 pm21 °FPassing clouds.No wind100%30.60 "Hg4 mi
10:43 pm21 °FIce fog.No wind93%30.60 "Hg3 mi
10:30 pm21 °FPassing clouds.No wind93%30.60 "Hg4 mi
10:00 pm21 °FPassing clouds.No wind93%30.60 "Hg4 mi
9:30 pm21 °FIce fog.No wind100%30.57 "Hg3 mi
9:00 pm23 °FPassing clouds.No wind93%30.57 "Hg4 mi
8:30 pm23 °FPassing clouds.No wind93%30.57 "Hg6 mi
8:00 pm25 °FPassing clouds.1 mph86%30.57 "Hg6 mi
7:30 pm23 °FPassing clouds.No wind93%30.57 "Hg6 mi
7:00 pm25 °FPassing clouds.1 mph86%30.57 "Hg5 mi
6:30 pm25 °FPassing clouds.3 mph86%30.57 "Hg5 mi
6:00 pm25 °FPartly sunny.3 mph86%30.54 "Hg5 mi
5:30 pm25 °FPartly sunny.No wind93%30.54 "Hg5 mi
5:00 pm25 °FPartly sunny.1 mph93%30.54 "Hg6 mi
4:30 pm25 °FPartly sunny.1 mph93%30.54 "Hg5 mi
4:00 pm25 °FPartly sunny.3 mph93%30.54 "Hg5 mi
3:30 pm25 °FPartly sunny.3 mph93%30.54 "Hg5 mi
3:20 pm25 °FPartly sunny.3 mph93%30.54 "Hg6 mi
3:00 pm25 °FPartly sunny.3 mph93%30.54 "Hg4 mi
2:30 pm25 °FPartly sunny.No wind93%30.54 "Hg4 mi
2:19 pm25 °FPartly sunny.No wind93%30.51 "Hg4 mi
1:50 pm25 °FIce fog.No wind86%30.51 "Hg3 mi
1:30 pm25 °FIce fog.No wind86%30.51 "Hg3 mi
1:00 pm23 °FIce fog.No wind93%30.51 "Hg3 mi
12:30 pm23 °FIce fog.No wind93%30.51 "Hg3 mi
12:00 pm21 °FIce fog.1 mph93%30.51 "Hg3 mi
11:30 am19 °FIce fog.No wind93%30.51 "Hg2 mi
11:00 am19 °FIce fog.No wind93%30.48 "Hg2 mi
10:30 am18 °FIce fog.No wind100%30.48 "Hg2 mi
10:07 am19 °FIce fog.1 mph93%30.48 "Hg2 mi
9:54 am19 °FIce fog.No wind93%30.45 "Hg1 mi
9:30 am19 °FIce fog.No wind93%30.45 "Hg2 mi
9:16 am19 °FIce fog.No wind100%30.45 "Hg2 mi
9:05 am19 °FIce fog.1 mph100%30.45 "Hg3 mi
Weather by CustomWeather, © 2017

See weather overviewHow to use our weather pages